Jamaica, NY

12:01 AM EDT on July 24, 2016 (GMT -0400)
Kennedy International

Weather History for KJFK - September, 2013

Change the Weather History Date:

Monday, September 16, 2013

  Actual Average Record
Temperature  
Mean Temperature 66 °F 68 °F  
Max Temperature 75 °F 75 °F 89 °F (1991)
Min Temperature 57 °F 61 °F 47 °F (1966)
Degree Days  
Heating Degree Days 0 1  
Month to date heating degree days 8 6  
Since 1 July heating degree days 8 7  
Cooling Degree Days 1 4  
Month to date cooling degree days 111 95  
Year to date cooling degree days 1070 956  
Growing Degree Days 18 (Base 50)    
Moisture  
Dew Point 53 °F    
Average Humidity 63    
Maximum Humidity 90    
Minimum Humidity 36    
Precipitation  
Precipitation 0.02 in 0.12 in 3.27 in (1999)
Month to date precipitation 0.43 1.73  
Year to date precipitation 26.62 30.69  
Snow  
Snow 0.00 in 0.00 in - ()
Month to date snowfall 0.0 0.0  
Since 1 July snowfall 0.0 0.0  
Snow Depth 0.00 in    
Sea Level Pressure  
Sea Level Pressure 30.10 in    
Wind  
Wind Speed 10 mph (NNW)    
Max Wind Speed 21 mph    
Max Gust Speed 29 mph    
Visibility 10 miles    
Events Rain    
T = Trace of Precipitation, MM = Missing Value Source: NWS Daily Summary

Daily Weather History Graph

Daily Weather History Graph

Search for Another Location

Airport or City:

Trip Planner

Search our weather history database for the weather conditions in past years. The results will help you decide how hot, cold, wet, or windy it might be!

Date:

Astronomy

Sep. 16, 2013 Rise Set
Actual Time 6:36 AM EDT 7:01 PM EDT
Civil Twilight 6:09 AM EDT 7:29 PM EDT
Nautical Twilight 5:37 AM EDT 8:01 PM EDT
Astronomical Twilight 5:04 AM EDT 8:34 PM EDT
Moon 5:09 PM EDT (9/16) 3:19 AM EDT (9/16)
Length of Visible Light 13h 19m
Length of Day
12h 25m
Waxing Gibbous, 90% of the Moon is Illuminated
Sep 16
Waxing Gibbous
Sep 19
Full
Sep 26
Last Quarter
Oct 4
New
Oct 11
First Quarter

Hourly Weather History & Observations

Time (EDT) Temp. Dew Point Humidity Pressure Visibility Wind Dir Wind Speed Gust Speed Precip Events Conditions
12:51 AM 64.0 °F 55.0 °F 73% 30.11 in 10.0 mi SW 9.2 mph - N/A   Overcast
1:51 AM 62.1 °F 55.9 °F 80% 30.09 in 10.0 mi SW 6.9 mph - N/A   Overcast
2:51 AM 62.1 °F 55.9 °F 80% 30.08 in 10.0 mi SSW 5.8 mph - N/A   Mostly Cloudy
3:51 AM 61.0 °F 57.0 °F 87% 30.07 in 10.0 mi SSW 6.9 mph - N/A   Scattered Clouds
4:51 AM 63.0 °F 57.0 °F 81% 30.06 in 10.0 mi SW 9.2 mph - N/A   Mostly Cloudy
5:51 AM 64.0 °F 59.0 °F 84% 30.06 in 10.0 mi WSW 8.1 mph - N/A   Overcast
6:51 AM 64.0 °F 57.9 °F 80% 30.06 in 10.0 mi West 11.5 mph - N/A   Overcast
7:51 AM 64.9 °F 57.9 °F 78% 30.08 in 10.0 mi West 6.9 mph - 0.00 in Rain Light Rain
8:51 AM 64.0 °F 57.0 °F 78% 30.08 in 10.0 mi WNW 10.4 mph - 0.00 in Rain Light Rain
9:51 AM 63.0 °F 57.0 °F 81% 30.10 in 8.0 mi NNW 12.7 mph - 0.01 in Rain Light Rain
10:51 AM 64.0 °F 55.9 °F 75% 30.10 in 10.0 mi North 5.8 mph - 0.00 in   Overcast
11:51 AM 64.9 °F 55.0 °F 70% 30.09 in 10.0 mi North 6.9 mph - 0.00 in   Mostly Cloudy
12:51 PM 64.9 °F 53.1 °F 65% 30.09 in 10.0 mi North 9.2 mph - 0.01 in Rain Light Rain
1:51 PM 68.0 °F 52.0 °F 56% 30.08 in 10.0 mi North 5.8 mph - 0.00 in   Mostly Cloudy
2:51 PM 72.0 °F 51.1 °F 48% 30.07 in 10.0 mi NE 6.9 mph - N/A   Mostly Cloudy
3:51 PM 75.0 °F 46.9 °F 37% 30.06 in 10.0 mi North 16.1 mph - N/A   Scattered Clouds
4:51 PM 73.0 °F 48.0 °F 41% 30.07 in 10.0 mi North 11.5 mph - N/A   Mostly Cloudy
5:51 PM 70.0 °F 48.0 °F 46% 30.09 in 10.0 mi North 12.7 mph - N/A   Mostly Cloudy
6:51 PM 66.9 °F 50.0 °F 54% 30.11 in 10.0 mi North 11.5 mph - N/A   Mostly Cloudy
7:51 PM 66.0 °F 50.0 °F 56% 30.13 in 10.0 mi North 11.5 mph - N/A   Mostly Cloudy
8:51 PM 66.0 °F 50.0 °F 56% 30.16 in 10.0 mi NNW 8.1 mph - N/A   Mostly Cloudy
9:51 PM 64.9 °F 50.0 °F 58% 30.18 in 10.0 mi North 11.5 mph - N/A   Mostly Cloudy
10:51 PM 62.1 °F 50.0 °F 65% 30.21 in 10.0 mi North 18.4 mph 23.0 mph N/A   Scattered Clouds
11:51 PM 60.1 °F 45.0 °F 57% 30.24 in 10.0 mi North 12.7 mph 25.3 mph N/A   Partly Cloudy